This is the latest recevied weather packets stored in our database for station/object KC0CAU. If no packets are shown the sender has not sent any weather packets the latest 10 day(s).
| Time | Temp. | Humidity | Pressure | Rain* | Wind** | Luminosity | Snow |
|---|---|---|---|---|---|---|---|
| 1777870813 | 12.22° C | 59% | 1000.5 hPa | 0 mm | - | - | - |
| 1777869912 | 18.33° C | 34% | 998.5 hPa | 0 mm | - | - | - |
| 1777869013 | 18.33° C | 34% | 998.1 hPa | 0 mm | - | - | - |
| 1777868110 | 18.33° C | 36% | 998.1 hPa | 0 mm | - | - | - |
| 1777867223 | 18.33° C | 37% | 998.3 hPa | 0 mm | - | - | - |
| 1777866309 | 18.33° C | 39% | 998.4 hPa | 0 mm | - | - | - |
| 1777865406 | 18.33° C | 39% | 998.6 hPa | 0 mm | - | - | - |
| 1777864505 | 18.89° C | 39% | 998.8 hPa | 0 mm | - | - | - |
| 1777863603 | 18.89° C | 38% | 999.1 hPa | 0 mm | - | - | - |
| 1777862701 | 19.44° C | 37% | 999.4 hPa | 0 mm | - | - | - |
| 1777861862 | 19.44° C | 37% | 999.8 hPa | 0 mm | - | - | - |
| 1777860958 | 20° C | 36% | 999.8 hPa | 0 mm | - | - | - |
| 1777860056 | 20.56° C | 34% | 999.9 hPa | 0 mm | - | - | - |
| 1777859165 | 21.11° C | 33% | 999.8 hPa | 0 mm | - | - | - |
| 1777858260 | 21.67° C | 32% | 1000 hPa | 0 mm | - | - | - |
| 1777857352 | 22.22° C | 31% | 1000.2 hPa | 0 mm | - | - | - |
| 1777856454 | 22.22° C | 30% | 1000.6 hPa | 0 mm | - | - | - |
| 1777855552 | 22.78° C | 28% | 1000.8 hPa | 0 mm | - | - | - |
| 1777854655 | 22.78° C | 28% | 1001.3 hPa | 0 mm | - | - | - |
| 1777853760 | 22.78° C | 28% | 1001.6 hPa | 0 mm | - | - | - |
| 1777852840 | 22.78° C | 28% | 1001.9 hPa | 0 mm | - | - | - |
| 1777851938 | 22.78° C | 27% | 1002.3 hPa | 0 mm | - | - | - |
| 1777851038 | 22.78° C | 28% | 1002.8 hPa | 0 mm | - | - | - |
| 1777850134 | 22.78° C | 27% | 1002.9 hPa | 0 mm | - | - | - |
| 1777849235 | 23.89° C | 27% | 1003 hPa | 0 mm | - | - | - |
* Rain latest hour (hover to see other rain measurements)
** Current wind speed in m/s (hover to see current wind gust speed)